Litchfield, MN

11:02 AM CST on December 12, 2019 (GMT -0600)
Litchfield Municipal

Weather History for KLJF - September, 2019

Change the Weather History Date:

Saturday, September 21, 2019

  Actual Average Record
Temperature  
Mean Temperature 76 °F -  
Max Temperature 87 °F 66 °F 86 °F (2005)
Min Temperature 64 °F 45 °F 33 °F (1982)
Cooling Degree Days 10    
Growing Degree Days 26 (Base 50)    
Moisture  
Dew Point 70 °F    
Average Humidity 84    
Maximum Humidity 100    
Minimum Humidity 58    
Precipitation  
Precipitation 0.00 in - - ()
Sea Level Pressure  
Sea Level Pressure 29.77 in    
Wind  
Wind Speed 7 mph ()    
Max Wind Speed 17 mph    
Max Gust Speed 22 mph    
Visibility 9.9 miles    
Events Rain , Thunderstorm    
Averages and records for this station are not official NWS values.
T = Trace of Precipitation, MM = Missing Value Source: Averaged Metar Reports

Daily Weather History Graph

Daily Weather History Graph

Search for Another Location

Airport or City:

Astronomy

Sep. 21, 2019 Rise Set
Actual Time 7:03 AM CDT 7:17 PM CDT
Civil Twilight 6:34 AM CDT 7:47 PM CDT
Nautical Twilight 5:59 AM CDT 8:21 PM CDT
Astronomical Twilight 5:24 AM CDT 8:57 PM CDT
Moon 11:38 PM CDT (9/21) 2:28 PM CDT (9/21)
Length of Visible Light 13h 12m
Length of Day
12h 14m
Waning Gibbous, 54% of the Moon is Illuminated
Sep 21
Waning Gibbous
Sep 21
Last Quarter
Sep 28
New
Oct 5
First Quarter
Oct 13
Full

Hourly Weather History & Observations

Time (CDT) Temp. Heat Index Dew Point Humidity Pressure Visibility Wind Dir Wind Speed Gust Speed Precip Events Conditions
12:18 AM 75.2 °F - 69.8 °F 83% 29.87 in 10.0 mi SSE 8.1 mph - N/A   Clear
12:36 AM 75.2 °F - 69.8 °F 83% 29.87 in 10.0 mi SSE 6.9 mph - N/A   Clear
12:56 AM 75.2 °F - 69.8 °F 83% 29.87 in 10.0 mi SSE 6.9 mph - N/A   Clear
1:15 AM 75.2 °F - 69.8 °F 83% 29.86 in 10.0 mi SSE 6.9 mph - N/A   Clear
1:35 AM 75.2 °F - 69.8 °F 83% 29.86 in 10.0 mi SSE 5.8 mph - N/A   Clear
1:39 AM 75.2 °F - 69.8 °F 83% 29.86 in 10.0 mi SSE 6.9 mph - N/A   Clear
1:57 AM 75.2 °F - 69.8 °F 83% 29.86 in 10.0 mi SSE 6.9 mph - N/A   Scattered Clouds
2:16 AM 75.2 °F - 69.8 °F 83% 29.85 in 10.0 mi SSE 6.9 mph - N/A   Scattered Clouds
2:35 AM 75.2 °F - 69.8 °F 83% 29.84 in 10.0 mi SSE 6.9 mph - N/A   Scattered Clouds
2:36 AM 75.2 °F - 69.8 °F 83% 29.84 in 10.0 mi SSE 5.8 mph - N/A   Scattered Clouds
2:55 AM 75.2 °F - 69.8 °F 83% 29.84 in 10.0 mi SSE 5.8 mph - N/A   Scattered Clouds
2:56 AM 75.2 °F - 69.8 °F 83% 29.84 in 10.0 mi SSE 6.9 mph - N/A   Scattered Clouds
3:19 AM 75.2 °F - 69.8 °F 83% 29.83 in 10.0 mi SSE 6.9 mph - N/A Rain Rain
3:36 AM 73.4 °F - 69.8 °F 88% 29.82 in 10.0 mi SSE 6.9 mph - N/A Rain Rain
3:56 AM 73.4 °F - 69.8 °F 88% 29.80 in 10.0 mi SSE 9.2 mph - N/A Thunderstorm Scattered Clouds
4:15 AM 73.4 °F - 69.8 °F 88% 29.79 in 10.0 mi SSE 8.1 mph - N/A Thunderstorm Clear
4:16 AM 73.4 °F - 69.8 °F 88% 29.79 in 10.0 mi SSE 8.1 mph - N/A Thunderstorm Clear
4:35 AM 73.4 °F - 69.8 °F 88% 29.79 in 10.0 mi SSE 5.8 mph - N/A   Clear
4:40 AM 73.4 °F - 69.8 °F 88% 29.78 in 10.0 mi SSE 6.9 mph - N/A   Clear
4:57 AM 73.4 °F - 69.8 °F 88% 29.78 in 10.0 mi SSE 6.9 mph - N/A   Scattered Clouds
5:15 AM 73.4 °F - 69.8 °F 88% 29.78 in 10.0 mi SSE 6.9 mph - N/A   Mostly Cloudy
5:35 AM 73.4 °F - 69.8 °F 88% 29.78 in 10.0 mi SSE 6.9 mph - N/A   Mostly Cloudy
5:36 AM 73.4 °F - 69.8 °F 88% 29.78 in 10.0 mi SSE 5.8 mph - N/A   Overcast
5:55 AM 73.4 °F - 69.8 °F 88% 29.78 in 10.0 mi SSE 5.8 mph - N/A   Mostly Cloudy
6:19 AM 73.4 °F - 69.8 °F 88% 29.78 in 10.0 mi SSE 4.6 mph - N/A   Mostly Cloudy
6:37 AM 73.4 °F - 69.8 °F 88% 29.77 in 10.0 mi SSE 8.1 mph - N/A   Mostly Cloudy
6:56 AM 73.4 °F - 69.8 °F 88% 29.77 in 10.0 mi SSE 4.6 mph - N/A   Overcast
7:15 AM 73.4 °F - 69.8 °F 88% 29.78 in 10.0 mi SSE 5.8 mph - N/A   Overcast
7:16 AM 73.4 °F - 69.8 °F 88% 29.78 in 10.0 mi SSE 6.9 mph - N/A   Overcast
7:35 AM 73.4 °F - 69.8 °F 88% 29.77 in 10.0 mi SSE 6.9 mph - N/A   Scattered Clouds
7:58 AM 73.4 °F - 69.8 °F 88% 29.77 in 10.0 mi SSE 6.9 mph - N/A   Mostly Cloudy
8:15 AM 73.4 °F - 69.8 °F 88% 29.76 in 10.0 mi SSE 6.9 mph - N/A Thunderstorm Overcast
8:35 AM 71.6 °F - 69.8 °F 94% 29.76 in 10.0 mi SSE 6.9 mph - N/A Thunderstorm Unknown
8:36 AM 71.6 °F - 69.8 °F 94% 29.77 in 10.0 mi SSE 5.8 mph - N/A Thunderstorm Overcast
8:55 AM 71.6 °F - 71.6 °F 100% 29.77 in 5.0 mi South 4.6 mph - N/A Rain , Thunderstorm Light Thunderstorms and Rain
8:56 AM 71.6 °F - 71.6 °F 100% 29.77 in 7.0 mi SSE 4.6 mph - N/A Rain , Thunderstorm Light Thunderstorms and Rain
9:19 AM 71.6 °F - 71.6 °F 100% 29.77 in 5.0 mi SSE 6.9 mph - N/A Rain , Thunderstorm Thunderstorms and Rain
9:36 AM 71.6 °F - 71.6 °F 100% 29.73 in 10.0 mi SSE 10.4 mph 18.4 mph N/A Rain , Thunderstorm Light Thunderstorms and Rain
9:55 AM 71.6 °F - 71.6 °F 100% 29.72 in 10.0 mi SSE 6.9 mph 17.3 mph N/A Thunderstorm Unknown
9:56 AM 71.6 °F - 71.6 °F 100% 29.72 in 10.0 mi SSE 8.1 mph 17.3 mph N/A Thunderstorm Unknown
10:15 AM 71.6 °F - 71.6 °F 100% 29.72 in 10.0 mi SSE 8.1 mph - N/A Thunderstorm Clear
10:16 AM 71.6 °F - 71.6 °F 100% 29.72 in 10.0 mi SSE 6.9 mph - N/A Thunderstorm Clear
10:35 AM 73.4 °F - 73.4 °F 100% 29.73 in 10.0 mi South 8.1 mph 20.7 mph N/A   Scattered Clouds
10:57 AM 73.4 °F - 73.4 °F 100% 29.73 in 10.0 mi SSE 8.1 mph - N/A   Mostly Cloudy
11:15 AM 73.4 °F - 73.4 °F 100% 29.73 in 10.0 mi SSE 5.8 mph - N/A   Overcast
11:35 AM 73.4 °F - 73.4 °F 100% 29.72 in 10.0 mi SSE 6.9 mph - N/A   Overcast
11:36 AM 73.4 °F - 73.4 °F 100% 29.72 in 10.0 mi South 6.9 mph - N/A   Overcast
11:55 AM 75.2 °F - 75.2 °F 100% 29.72 in 10.0 mi SSE 5.8 mph - N/A   Mostly Cloudy
11:56 AM 75.2 °F - 75.2 °F 100% 29.72 in 10.0 mi SSE 5.8 mph - N/A   Mostly Cloudy
12:19 PM 75.2 °F - 75.2 °F 100% 29.72 in 10.0 mi SSW 3.5 mph - N/A   Mostly Cloudy
12:37 PM 78.8 °F - 78.8 °F 100% 29.72 in 10.0 mi South 8.1 mph - N/A   Scattered Clouds
12:56 PM 80.6 °F 89.3 °F 80.6 °F 100% 29.72 in 10.0 mi South 5.8 mph - N/A   Scattered Clouds
1:15 PM 80.6 °F 89.3 °F 80.6 °F 100% 29.72 in 10.0 mi South 4.6 mph - N/A   Scattered Clouds
1:16 PM 80.6 °F 89.3 °F 80.6 °F 100% 29.71 in 10.0 mi South 5.8 mph - N/A   Scattered Clouds
1:35 PM 80.6 °F 89.3 °F 80.6 °F 100% 29.71 in 10.0 mi South 4.6 mph - N/A   Scattered Clouds
1:40 PM 82.4 °F 94.0 °F 80.6 °F 94% 29.71 in 10.0 mi SSE 3.5 mph - N/A   Scattered Clouds
1:57 PM 82.4 °F 96.1 °F 82.4 °F 100% 29.70 in 10.0 mi South 3.5 mph - N/A   Scattered Clouds
2:16 PM 82.4 °F 96.1 °F 82.4 °F 100% 29.70 in 10.0 mi South 4.6 mph - N/A   Scattered Clouds
2:35 PM 84.2 °F 103.5 °F 84.2 °F 100% 29.69 in 10.0 mi SSW 6.9 mph - N/A   Clear
2:36 PM 84.2 °F 103.5 °F 84.2 °F 100% 29.69 in 10.0 mi SSW 5.8 mph - N/A   Clear
2:55 PM 84.2 °F 103.5 °F 84.2 °F 100% 29.68 in 10.0 mi South 9.2 mph 18.4 mph N/A   Clear
2:56 PM 84.2 °F 103.5 °F 84.2 °F 100% 29.68 in 10.0 mi SSW 10.4 mph 18.4 mph N/A   Clear
3:19 PM 84.2 °F 98.3 °F 80.6 °F 89% 29.69 in 10.0 mi WSW 10.4 mph 17.3 mph N/A   Clear
3:37 PM 84.2 °F 92.3 °F 75.2 °F 74% 29.69 in 10.0 mi SW 8.1 mph - N/A   Clear
3:56 PM 82.4 °F 88.2 °F 73.4 °F 74% 29.69 in 10.0 mi WSW 8.1 mph - N/A   Scattered Clouds
4:15 PM 87.8 °F 95.6 °F 73.4 °F 62% 29.69 in 10.0 mi SW 6.9 mph - N/A   Clear
4:16 PM 87.8 °F 95.6 °F 73.4 °F 62% 29.69 in 10.0 mi WSW 5.8 mph - N/A   Clear
4:35 PM 87.8 °F 93.8 °F 71.6 °F 58% 29.70 in 10.0 mi WSW 10.4 mph 17.3 mph N/A   Clear
4:57 PM 86.0 °F 95.1 °F 75.2 °F 70% 29.70 in 10.0 mi WSW 9.2 mph 17.3 mph N/A   Clear
5:16 PM 84.2 °F 89.6 °F 71.6 °F 66% 29.70 in 10.0 mi WSW 6.9 mph 16.1 mph N/A   Clear
5:35 PM 84.2 °F 87.3 °F 68.0 °F 58% 29.71 in 10.0 mi WSW 8.1 mph 17.3 mph N/A   Clear
5:36 PM 84.2 °F 87.3 °F 68.0 °F 58% 29.71 in 10.0 mi WSW 8.1 mph - N/A   Clear
5:55 PM 84.2 °F 87.3 °F 68.0 °F 58% 29.72 in 10.0 mi WSW 5.8 mph - N/A   Clear
5:56 PM 84.2 °F 87.3 °F 68.0 °F 58% 29.72 in 10.0 mi WSW 5.8 mph - N/A   Clear
6:18 PM 82.4 °F 85.4 °F 68.0 °F 62% 29.73 in 10.0 mi West 6.9 mph - N/A   Scattered Clouds
6:36 PM 80.6 °F 82.7 °F 66.2 °F 61% 29.74 in 10.0 mi West 6.9 mph - N/A   Scattered Clouds
6:56 PM 78.8 °F - 66.2 °F 65% 29.75 in 10.0 mi WSW 5.8 mph - N/A   Clear
7:15 PM 77.0 °F - 66.2 °F 69% 29.75 in 10.0 mi West 6.9 mph - N/A   Clear
7:16 PM 77.0 °F - 66.2 °F 69% 29.75 in 10.0 mi West 5.8 mph - N/A   Clear
7:35 PM 75.2 °F - 66.2 °F 73% 29.76 in 10.0 mi West 6.9 mph - N/A   Clear
7:39 PM 75.2 °F - 66.2 °F 73% 29.76 in 10.0 mi West 5.8 mph - N/A   Clear
7:58 PM 73.4 °F - 66.2 °F 78% 29.76 in 10.0 mi West 8.1 mph - N/A   Clear
8:16 PM 73.4 °F - 64.4 °F 73% 29.77 in 10.0 mi West 8.1 mph - N/A   Clear
8:35 PM 73.4 °F - 64.4 °F 73% 29.78 in 10.0 mi West 8.1 mph - N/A   Clear
8:36 PM 73.4 °F - 64.4 °F 73% 29.78 in 10.0 mi West 6.9 mph - N/A   Clear
8:55 PM 71.6 °F - 64.4 °F 78% 29.79 in 10.0 mi WSW 8.1 mph - N/A   Clear
8:56 PM 71.6 °F - 64.4 °F 78% 29.79 in 10.0 mi West 9.2 mph - N/A   Clear
9:18 PM 71.6 °F - 62.6 °F 73% 29.80 in 10.0 mi West 17.3 mph 21.9 mph N/A   Clear
9:37 PM 71.6 °F - 62.6 °F 73% 29.80 in 10.0 mi West 11.5 mph 20.7 mph N/A   Clear
9:55 PM 69.8 °F - 60.8 °F 73% 29.81 in 10.0 mi West 13.8 mph 20.7 mph N/A   Clear
10:15 PM 69.8 °F - 60.8 °F 73% 29.81 in 10.0 mi West 9.2 mph 17.3 mph N/A   Clear
10:16 PM 69.8 °F - 60.8 °F 73% 29.81 in 10.0 mi West 9.2 mph 17.3 mph N/A   Clear
10:35 PM 68.0 °F - 60.8 °F 78% 29.82 in 10.0 mi West 8.1 mph - N/A   Clear
10:39 PM 68.0 °F - 60.8 °F 78% 29.82 in 10.0 mi West 6.9 mph - N/A   Clear
10:57 PM 66.2 °F - 60.8 °F 83% 29.83 in 10.0 mi WSW 6.9 mph - N/A   Clear
11:15 PM 66.2 °F - 59.0 °F 78% 29.85 in 10.0 mi West 6.9 mph - N/A   Clear
11:35 PM 66.2 °F - 57.2 °F 73% 29.86 in 10.0 mi WSW 5.8 mph 9.2 mph N/A   Clear
11:36 PM 66.2 °F - 57.2 °F 73% 29.86 in 10.0 mi WSW 6.9 mph - N/A   Clear
11:55 PM 64.4 °F - 57.2 °F 77% 29.85 in 10.0 mi West 8.1 mph - N/A   Clear
11:56 PM 64.4 °F - 57.2 °F 77% 29.85 in 10.0 mi West 6.9 mph - N/A   Clear